Location: Mountain Grove
(34.0887°N, 86.6172°W)
Time: 00:00:13
(UTC+00:00)

Cosmos 158 Rocket - Pass Details

Date: 14 July 2020
Orbit: 698 x 794 km, 74.0° (Epoch: 12 August)

Event Time Altitude Azimuth Distance (km) Brightness Sun altitude
Exits shadow 03:00:20 - 210° (SSW) 2,432 6.4 -20.9°
Reaches altitude 10° 03:01:04 10° 211° (SSW) 2,150 6.2 -21.0°
Maximum altitude 03:05:47 54° 289° (WNW) 846 4.5 -21.6°
Drops below altitude 10° 03:10:36 10° 7° (N) 2,181 6.9 -22.3°
Sets 03:13:00 0° 12° (NNE) 3,114 7.7 -22.6°
